Location: Heidgraben
(53.7081°N, 9.6576°E)
Time: 09:45:35
(UTC+00:00)

Cosmos 923 Rocket - Pass Details

Date: 05 July 2020
Orbit: 757 x 786 km, 74.0° (Epoch: 06 August)

Event Time Altitude Azimuth Distance (km) Brightness Sun altitude
Exits shadow 21:52:21 10° 189° (S) 2,301 6.0 -11.0°
Maximum altitude 21:57:29 61° 110° (ESE) 879 4.1 -11.3°
Drops below altitude 10° 22:02:42 10° 32° (NNE) 2,339 7.1 -11.5°
Sets 22:05:08 0° 29° (NNE) 3,276 7.9 -11.6°
